Regional Weather Roundup
Issued by NWS

Home | Current Version | Previous Version | Graphics & Text | Print | Product List | Glossary On
Versions: 1 2 3 4 5 6 7 8 9 10 11 12 13 14 15 16 17 18 19 20 21 22 23 24 25 26 27 28 29 30 31 32 33 34 35 36 37 38 39 40 41 42 43 44 45 46 47 48 49
000
ASUS45 KBOU 270507
RWRCO

WEATHER ROUNDUP FOR COLORADO
NATIONAL WEATHER SERVICE DENVER/BOULDER CO
1000 PM MST THU FEB 26 2015

NOTE: "FAIR" INDICATES FEW OR NO CLOUDS BELOW 12000 FEET WITH NO
SIGNIFICANT WEATHER AND/OR OBSTRUCTIONS TO VISIBILITY.

COZ001>005-013-030-031-270600-
...NORTHWEST COLORADO...

CITY           SKY/WX    TMP DP  RH WIND       PRES   REMARKS
CRAIG          CLOUDY    24  18  77 VRB3      29.88R
HAYDEN         CLOUDY    21  19  93 CALM      29.85S
MEEKER         LGT SNOW  26  22  84 N5        29.85R FOG     WCI  20
MOUNT WERNER   NOT AVBL
STEAMBOAT SPGS CLOUDY    20  19  93 CALM      29.84S
WALDEN         CLOUDY    10   5  79 NW9       29.84S WCI  -2
$$

COZ006>008-011-270600-
...WEST CENTRAL VALLEYS...

CITY           SKY/WX    TMP DP  RH WIND       PRES   REMARKS
GRAND JUNCTION CLOUDY    35  25  66 N5        29.85R WCI  31
MONTROSE       CLOUDY    32  23  69 SE5       29.88R WCI  27
EAGLE          CLOUDY    28  27  93 CALM      29.84F
RIFLE          CLOUDY    32  25  75 E7        29.84S WCI  26
DELTA          CLOUDY    34  29  82 CALM      29.87S
NUCLA          MOCLDY    30  27  86 CALM      29.90S
$$

COZ017>023-064>068-270600-
...SOUTHWEST COLORADO...

CITY           SKY/WX    TMP DP  RH WIND       PRES   REMARKS
DURANGO        LGT SNOW  27  26  96 CALM      29.84S FOG
CORTEZ         LGT SNOW  29  28  96 CALM      29.86S VSB 3/4
PAGOSA SPRINGS LGT SNOW  27  27  99 CALM      29.83F VSB 1
TELLURIDE      LGT SNOW  21  21  98 W3        29.82S
WOLF CREEK PAS LGT SNOW  10   9  92 SW16G22   29.80S VSB 3/4 WCI  -7
$$

COZ009-010-012-014-032>034-037-058>063-270600-
...CENTRAL COLORADO...

CITY           SKY/WX    TMP DP  RH WIND       PRES   REMARKS
ASPEN          CLOUDY    22  18  85 SW5       29.79F WCI  16
BUENA VISTA    LGT SNOW   8   4  85 SE9       29.94R WCI  -6
COPPER MTN     LGT SNOW  12   5  73 SW15G22   29.72F WCI  -4
BERTHOUD PASS  LGT SNOW   3  -4  72 W20       29.70F VSB 1   WCI -18
COTTONWOOD PAS LGT SNOW   9   3  78 SE6       29.84R WCI  -1
GUNNISON       PTCLDY    18   9  68 CALM      29.86S
KREMMLING      LGT SNOW  19  12  73 N9        29.85R WCI   9
LEADVILLE      LGT SNOW   2  -1  88 S12       29.78R VSB 1   WCI -15
MONARCH PASS   CLOUDY     9   5  85 MISG      29.85S
SALIDA         CLOUDY    10   3  75 E10       30.05R WCI  -4
SUNLIGHT       LGT SNOW  16  14  93 CALM      29.73F VSB 1
WILKERSON PASS LGT SNOW  -4  -8  84 CALM      29.78S
$$

COZ069>075-270600-
...SAN LUIS VALLEY/SANGRE DE CRISTO MOUNTAINS...

CITY           SKY/WX    TMP DP  RH WIND       PRES   REMARKS
ALAMOSA        CLOUDY    21  17  84 SW9       29.84S WCI  11
LA VETA PASS   LGT SNOW  -4  -8  84 N9        29.82F WCI -20
SAGUACHE       CLOUDY    21  19  93 CALM      29.85S
$$

COZ035-036-038>040-270600-
...NORTHERN COLORADO FRONT RANGE...

CITY           SKY/WX    TMP DP  RH WIND       PRES   REMARKS
DENVER INTL AP LGT SNOW  12   8  84 SE21      30.10F BLWGSNOWWCI  -7
DMNS CITY PARK   N/A     12  10  91 W9        30.11S WCI   0
AURORA         LGT SNOW  12   9  87 S16       30.08S BLWGSNOWWCI  -4
FRONT RANGE AP NOT AVBL
ERIE MUNI ARPT LGT SNOW  13  10  90 N6        30.14F WCI   4
BOULDER MUN AP LGT SNOW  12  10  92 N5        30.13F WCI   4
CENTENNIAL     LGT SNOW  12   9  87 SW8       30.07F FOG     WCI   0
BROOMFIELD     LGT SNOW  12  10  92 N12       30.10F VSB 1   WCI  -2
FORT COLLINS   CLOUDY    12   9  85 SE9       30.17F WCI   0
LONGMONT       LGT SNOW  15  11  85 CALM      30.18S
$$

COZ041-046-047-076>085-087-088-270600-
...PIKES PEAK/PALMER DIVIDE AND SOUTHERN FOOTHILLS...

CITY           SKY/WX    TMP DP  RH WIND       PRES   REMARKS
COLO. SPRINGS  LGT SNOW   8   6  92 SE5       30.11F VSB 3/4 WCI   0
A. F. ACADEMY  FLURRIES   7   1  78 S8        30.07S WCI  -6
ELLICOTT       NOT AVBL
FALCON         LGT SNOW   4   1  86 S3        30.07S
FORT CARSON    SNOW       9   6  88 S3        30.11F VSB 1/4
LIMON          LGT SNOW  10   7  87 S14       30.17S FOG     WCI  -6
MONUMENT HILL  MOCLDY     3   0  85 S9        30.02S WCI -11
TRINIDAD       LGT SNOW  13   9  84 NW13      30.08S FOG     WCI  -2
$$

COZ042>045-048>051-090-091-270600-
...NORTHEAST COLORADO...

CITY           SKY/WX    TMP DP  RH WIND       PRES   REMARKS
GREELEY ARPT   CLOUDY    14   7  73 E12       30.17F WCI   0
AKRON          LGT SNOW  12   9  87 SE12      30.22S FOG     WCI  -2
BURLINGTON     CLOUDY    14   8  77 SE9       30.28S WCI   2
WRAY           CLOUDY    15   4  61 E9        30.33F WCI   4
STERLING       LGT SNOW  14   9  79 E12       30.27F WCI   0
HOLYOKE        NOT AVBL
FORT MORGAN    LGT SNOW  13  10  85 E10       30.23S WCI   0
$$

COZ086-089-092>099-270600-
...SOUTHEAST COLORADO...

CITY           SKY/WX    TMP DP  RH WIND       PRES   REMARKS
PUEBLO         LGT SNOW  14  11  87 E13       30.19F FOG     WCI   0
LA JUNTA       LGT SNOW  16  12  84 E16       30.24S FOG     WCI   1
LAMAR          LGT SNOW  15  12  88 SE9       30.29F VSB 1   WCI   3
SPRINGFIELD      N/A     13  10  88 E9        30.25S WCI   1
$$


USA.gov is the U.S. government's official web portal to all federal, state and local government web resources and services.